Temp
61 60 62 62 63 63 64 64 65 65 66 67 68 68 68 68 68 67 67 66 65 65 64 64 64 63 61 61 62 61 60 60 59 59 61 63 62 62 63 62 64 64 63
62 59 60 61 62 63 64 65 66 66 67 68 68 69 69 68 67 67 66 66 66 64 63 63 63 63 62 62 62 61 60 60 60 58 60 60 60 61 62 61 62 64 64
61 60 60 62 63 63 64 65 66 66 67 68 69 69 69 68 68 67 67 66 65 64 64 63 64 63 62 61 61 60 60 61 61 59 59 60 60 61 60 60 61 62 62
62 62 62 63 64 64 65 66 66 68 68 68 69 69 68 68 67 67 66 65 64 64 64 64 64 64 63 62 61 61 60 60 61 61 59 58 59 59 60 59 58 60 59
64 64 64 65 66 66 66 66 67 68 68 68 68 68 68 68 67 66 65 64 63 63 63 64 65 63 61 62 61 60 61 60 60 59 58 57 57 58 58 59 58 59 59
65 66 68 67 68 67 66 66 66 66 66 67 67 67 66 64 51 54 61 63 64 63 63 63 64 61 58 56 56 56 61 61 61 60 58 57 58 58 59 58 58 57 56
66 67 67 68 67 67 66 65 65 65 66 65 64 65 61 58 48 49 52 63 63 63 63 62 62 63 60 61 53 53 54 54 58 62 60 60 57 60 60 59 60 61 58
66 66 66 66 66 65 65 64 64 63 62 60 60 59 58 55 46 47 51 63 62 62 62 62 63 62 62 60 59 60 61 62 62 64 63 63 62 62 63 64 62 60 58
65 65 66 66 64 64 63 63 62 60 59 58 59 59 58 56 46 46 56 61 60 61 62 62 63 62 49 50 60 59 58 57 51 51 52 50 48 50 57 63 60 58 56
65 66 67 66 65 64 63 61 60 59 58 58 59 60 54 57 45 46 56 59 59 59 60 58 51 56 44 47 61 59 57 57 57 58 56 52 52 52 52 64 63 59 57
67 67 66 65 64 64 62 61 60 58 58 57 58 58 58 56 52 46 49 61 59 59 59 57 55 44 44 46 51 60 57 57 54 58 57 57 57 58 60 62 65 64 62
66 65 63 63 65 63 61 60 59 58 57 57 58 58 58 57 49 46 47 51 53 59 59 57 51 42 43 44 52 44 46 53 59 58 57 57 57 58 59 60 61 60 62
63 63 64 64 63 62 60 59 58 58 58 57 58 57 57 57 53 43 43 45 49 57 58 50 43 42 42 45 43 44 49 59 58 57 56 57 58 59 59 59 59 60 60
61 63 63 62 61 62 61 60 58 58 58 58 58 57 57 57 56 56 55 53 48 50 49 51 48 48 47 48 53 56 59 60 59 57 57 57 58 58 57 59 57 59 58
64 63 62 61 58 52 48 55 59 59 59 59 60 60 57 57 57 53 54 57 56 51 54 57 56 56 56 56 57 58 58 59 59 58 57 57 57 57 56 58 59 59 57
61 61 60 58 56 55 55 52 42 44 46 47 50 55 56 48 44 43 43 43 44 46 56 56 55 56 56 56 55 56 57 56 58 58 58 58 57 56 56 56 58 57 55
59 59 57 57 58 57 57 57 53 46 41 41 41 42 45 42 41 41 42 42 43 49 56 55 56 57 56 56 57 57 56 58 59 59 59 58 58 58 55 56 57 60 59
59 50 59 57 58 57 58 57 58 57 55 52 41 42 40 40 41 41 43 48 55 53 56 56 56 58 57 57 57 59 58 58 61 61 59 58 59 59 56 56 57 55 55
62 60 59 58 58 56 59 60 60 57 54 50 50 45 42 40 41 44 45 58 56 55 58 57 58 59 57 58 59 60 59 58 58 59 58 59 60 58 56 57 55 48 51
59 49 53 58 58 58 60 59 57 55 55 56 53 50 51 53 54 54 56 57 57 57 58 58 59 60 60 60 60 59 59 58 58 57 58 59 59 60 58 62 61 62 60
58 57 51 59 58 59 59 57 59 59 57 55 53 51 41 57 55 52 51 49 50 51 53 54 53 54 56 59 59 58 58 58 59 61 61 59 60 59 62 63 64 62 64
60 60 60 58 59 59 59 60 59 57 57 55 54 47 39 55 51 48 46 46 46 46 47 49 47 48 49 50 51 56 61 60 60 61 61 64 64 63 61 64 62 61 62
62 61 60 59 58 53 58 59 58 58 57 56 55 54 51 48 46 45 45 44 45 44 44 45 46 45 47 47 48 50 53 54 56 59 61 61 61 61 62 61 60 60 58
62 61 59 58 58 58 58 57 57 51 56 54 52 50 48 46 45 44 43 43 43 43 44 42 41 41 42 43 43 43 43 46 53 53 56 57 55 53 53 51 51 50 51
60 60 59 58 57 56 55 54 54 53 52 51 49 47 46 45 44 44 42 42 42 42 42 43 43 43 42 43 44 44 37 37 46 43 55 54 54 53 51 52 52 51 52
53 54 54 54 53 51 50 48 47 47 46 46 46 45 44 43 43 42 41 40 41 40 40 41 40 40 40 40 38 36 36 37 41 38 50 49 48 48 49 47 47 46 47
MSLP
997.63 997.28 997.25 997.12 997.45 997.85 998.32 998.95 999.39 1000.08 1000.35 1001.00 1001.39 1002.11 1002.94 1003.48 1003.93 1004.43 1005.00 1005.44 1005.92 1006.51 1007.10 1007.36 1007.78 1008.19 1008.87 1009.24 1009.48 1009.72 1009.96 1010.34 1010.94 1011.52 1011.61 1011.62 1011.61 1011.60 1011.74 1011.81 1011.95 1012.05 1012.37
996.80 996.53 996.47 996.71 997.09 997.47 997.83 998.39 999.10 999.40 1000.11 1000.51 1001.10 1001.95 1002.74 1003.20 1003.71 1004.21 1004.86 1005.31 1005.78 1006.44 1006.79 1007.29 1007.78 1008.33 1008.69 1009.01 1009.25 1009.55 1009.86 1010.27 1010.62 1011.22 1011.50 1011.65 1011.67 1011.96 1012.10 1012.14 1012.21 1012.29 1012.51
995.93 995.85 996.02 996.23 996.65 996.94 997.35 998.18 998.61 999.31 999.85 1000.38 1001.07 1001.77 1002.37 1003.01 1003.58 1004.05 1004.42 1005.14 1005.67 1006.13 1006.58 1007.10 1007.59 1008.04 1008.47 1008.85 1009.17 1009.52 1009.81 1010.22 1010.40 1010.83 1011.30 1011.60 1011.98 1012.22 1012.47 1012.52 1012.71 1012.77 1012.85
994.77 994.86 995.12 995.61 995.91 996.37 997.02 997.81 998.37 999.07 999.44 1000.18 1000.91 1001.50 1002.22 1002.98 1003.52 1003.98 1004.55 1005.11 1005.59 1006.09 1006.57 1006.97 1007.36 1007.71 1008.10 1008.53 1008.93 1009.39 1009.75 1010.06 1010.42 1010.70 1011.23 1011.77 1012.02 1012.37 1012.54 1012.79 1013.13 1013.24 1013.45
993.80 993.83 994.61 994.94 995.53 996.03 996.87 997.67 998.32 998.91 999.41 1000.14 1000.84 1001.63 1002.35 1002.91 1003.40 1003.97 1004.56 1005.04 1005.62 1006.16 1006.53 1006.89 1007.19 1007.51 1007.84 1008.10 1008.59 1009.19 1009.52 1009.93 1010.31 1010.77 1011.21 1011.73 1012.10 1012.35 1012.57 1012.96 1013.27 1013.51 1013.76
992.82 993.28 994.03 994.86 995.48 996.13 997.08 997.82 998.29 998.99 999.62 1000.35 1001.17 1001.80 1002.42 1002.98 1003.46 1004.02 1004.44 1005.13 1005.64 1006.02 1006.43 1006.78 1007.09 1007.37 1007.63 1007.91 1008.33 1008.78 1008.97 1009.50 1010.07 1010.61 1011.03 1011.37 1011.89 1012.25 1012.63 1012.98 1013.23 1013.62 1014.01
992.51 992.89 993.38 994.56 995.43 996.25 997.02 997.68 998.42 999.34 1000.05 1000.77 1001.54 1002.02 1002.86 1003.58 1004.10 1004.43 1004.69 1005.20 1005.61 1005.96 1006.25 1006.56 1006.89 1007.13 1007.45 1007.96 1008.54 1008.88 1009.28 1009.52 1009.65 1010.08 1010.57 1011.07 1011.63 1011.93 1012.39 1012.91 1013.19 1013.40 1013.78
992.48 992.26 993.32 994.33 995.33 996.26 997.06 997.90 998.81 999.63 1000.41 1001.22 1001.98 1002.61 1003.32 1004.20 1004.47 1004.75 1004.99 1005.33 1005.68 1005.98 1006.22 1006.48 1006.70 1007.15 1007.50 1007.95 1008.57 1009.08 1009.58 1009.94 1010.25 1010.26 1010.54 1010.84 1011.28 1011.91 1012.21 1012.57 1013.07 1013.59 1014.03
992.29 992.53 993.11 993.98 995.32 996.34 997.20 998.02 999.12 1000.05 1001.12 1001.93 1002.54 1003.13 1003.75 1004.42 1004.75 1005.02 1005.06 1005.48 1005.79 1006.09 1006.23 1006.51 1006.83 1007.26 1007.66 1008.08 1008.37 1009.08 1009.84 1010.46 1010.67 1010.43 1010.67 1011.06 1011.57 1011.98 1012.14 1012.69 1013.16 1013.56 1014.06
992.02 992.80 993.43 994.17 995.45 996.50 997.10 998.43 999.80 1000.54 1001.59 1002.37 1003.09 1003.64 1004.24 1004.67 1005.15 1005.20 1005.27 1005.66 1006.03 1006.29 1006.55 1006.94 1007.10 1007.48 1007.74 1007.98 1008.56 1008.93 1009.79 1010.52 1010.76 1011.19 1011.63 1011.99 1012.11 1012.40 1012.38 1012.51 1013.05 1013.29 1013.84
991.98 992.87 993.86 994.39 995.55 996.17 997.66 999.07 1000.13 1001.15 1002.00 1002.94 1003.70 1004.25 1004.61 1004.94 1005.41 1005.49 1005.42 1005.64 1006.04 1006.37 1006.78 1007.23 1007.65 1007.78 1008.06 1008.50 1008.73 1008.95 1009.56 1010.31 1010.81 1011.08 1011.57 1011.98 1012.41 1012.79 1012.85 1012.85 1012.98 1013.12 1013.62
992.35 993.18 993.77 995.16 996.20 997.30 998.32 999.84 1000.60 1001.42 1002.48 1003.35 1003.85 1004.55 1005.02 1005.42 1005.67 1005.68 1005.58 1005.80 1006.10 1006.34 1006.83 1007.36 1007.97 1008.18 1008.42 1008.71 1009.04 1009.47 1009.92 1010.30 1010.69 1011.14 1011.58 1012.02 1012.39 1012.84 1013.13 1013.21 1013.29 1013.50 1013.58
993.79 993.59 994.45 995.86 996.97 998.00 998.95 1000.10 1001.20 1002.16 1002.78 1003.51 1004.15 1004.79 1005.27 1005.61 1005.95 1006.01 1006.02 1006.15 1006.33 1006.71 1007.13 1007.67 1008.23 1008.61 1008.90 1009.23 1009.53 1009.96 1010.18 1010.43 1010.89 1011.29 1011.71 1012.10 1012.44 1012.82 1013.17 1013.41 1013.49 1013.56 1013.72
992.39 994.84 995.23 996.38 997.69 998.54 999.49 1000.54 1001.62 1002.43 1002.99 1003.64 1004.31 1004.76 1005.24 1005.69 1006.06 1006.37 1006.60 1006.82 1006.94 1007.48 1007.90 1008.35 1008.53 1008.90 1009.22 1009.71 1010.10 1010.28 1010.41 1010.54 1010.83 1011.32 1011.79 1012.15 1012.57 1012.97 1013.28 1013.41 1013.67 1013.88 1014.05
994.32 995.06 996.09 997.20 998.19 999.44 1000.71 1001.72 1002.14 1002.56 1002.67 1003.45 1004.04 1004.50 1005.12 1005.73 1006.15 1006.26 1006.45 1006.82 1007.18 1007.63 1007.93 1008.34 1008.76 1009.26 1009.72 1009.99 1010.23 1010.44 1010.60 1010.75 1010.98 1011.38 1011.79 1012.15 1012.53 1012.91 1013.28 1013.46 1013.54 1013.77 1013.89
994.80 995.80 996.85 997.54 998.72 999.85 1001.02 1002.55 1003.08 1003.10 1003.30 1003.67 1004.09 1004.54 1005.35 1005.68 1006.16 1006.52 1006.84 1007.16 1007.51 1007.79 1008.05 1008.52 1008.98 1009.33 1009.74 1010.14 1010.39 1010.62 1010.75 1010.90 1011.16 1011.44 1011.79 1012.14 1012.54 1012.92 1013.21 1013.45 1013.57 1013.76 1013.91
995.20 996.03 996.96 997.82 999.07 1000.17 1001.30 1002.20 1003.45 1004.62 1004.58 1004.72 1004.84 1005.25 1005.62 1006.23 1006.64 1007.00 1007.36 1007.73 1007.95 1008.01 1008.31 1008.75 1009.16 1009.46 1009.82 1010.22 1010.49 1010.64 1010.82 1011.04 1011.31 1011.56 1011.79 1012.16 1012.52 1012.80 1013.09 1013.21 1013.40 1013.63 1013.83
995.47 996.37 997.31 998.49 999.44 1000.44 1001.27 1002.15 1002.90 1003.82 1004.73 1005.77 1006.37 1006.30 1006.56 1006.89 1007.24 1007.59 1007.84 1008.05 1008.26 1008.47 1008.54 1009.10 1009.45 1009.69 1009.96 1010.22 1010.45 1010.57 1010.80 1011.12 1011.27 1011.48 1011.77 1012.06 1012.41 1012.76 1013.06 1013.23 1013.41 1013.53 1013.64
996.03 997.29 998.20 999.11 999.95 1000.62 1001.41 1002.15 1002.81 1003.68 1004.72 1005.89 1006.58 1007.11 1007.45 1007.52 1007.73 1007.90 1007.91 1008.08 1008.45 1008.75 1009.00 1009.27 1009.52 1009.80 1010.02 1010.22 1010.48 1010.64 1010.80 1011.10 1011.30 1011.47 1011.71 1011.99 1012.29 1012.58 1012.75 1012.98 1013.02 1013.21 1013.35
997.04 997.85 998.67 999.62 1000.37 1000.94 1001.60 1002.26 1003.02 1003.99 1004.99 1005.69 1006.63 1007.52 1007.73 1007.77 1008.18 1008.30 1008.40 1008.61 1008.91 1009.20 1009.38 1009.58 1009.76 1009.97 1010.17 1010.37 1010.56 1010.72 1010.93 1011.20 1011.33 1011.46 1011.62 1011.86 1012.13 1012.30 1012.46 1012.60 1012.74 1012.89 1013.05
997.69 998.63 999.21 1000.03 1000.72 1001.24 1001.86 1002.56 1003.25 1004.06 1004.94 1005.98 1007.08 1007.90 1007.82 1008.28 1008.72 1009.14 1009.53 1009.86 1010.03 1010.09 1010.14 1010.22 1010.47 1010.66 1010.71 1010.59 1010.76 1010.94 1011.06 1011.25 1011.36 1011.44 1011.60 1011.80 1011.98 1012.07 1012.11 1012.09 1012.28 1012.47 1012.52
998.04 998.94 999.72 1000.40 1001.10 1001.58 1002.13 1002.77 1003.57 1004.40 1005.33 1006.32 1007.40 1008.34 1008.38 1008.93 1009.61 1010.20 1010.69 1011.04 1011.33 1011.35 1011.39 1011.37 1011.57 1011.76 1011.79 1011.78 1011.69 1011.48 1011.20 1011.26 1011.36 1011.41 1011.55 1011.65 1011.71 1011.79 1011.82 1011.82 1011.98 1012.17 1012.23
998.53 999.32 1000.09 1000.79 1001.29 1001.92 1002.57 1003.34 1004.07 1004.88 1005.75 1006.78 1007.66 1008.42 1009.16 1009.98 1010.65 1011.29 1011.78 1012.28 1012.47 1012.42 1012.54 1012.57 1012.65 1012.79 1012.84 1012.76 1012.59 1012.39 1012.20 1012.13 1011.96 1011.79 1011.74 1011.81 1011.92 1011.90 1011.72 1011.99 1012.24 1012.50 1012.77
998.98 999.50 1000.17 1001.14 1001.83 1002.47 1003.19 1003.94 1004.74 1005.46 1006.30 1007.36 1008.37 1009.34 1010.11 1010.86 1011.68 1012.46 1012.90 1013.30 1013.45 1013.55 1013.62 1013.83 1013.94 1013.91 1013.86 1013.71 1013.59 1013.52 1013.27 1012.87 1012.42 1012.31 1012.20 1012.49 1012.74 1012.87 1012.89 1013.28 1013.44 1013.57 1013.49
999.57 1000.13 1000.77 1001.55 1002.40 1003.20 1004.09 1005.03 1005.75 1006.59 1007.47 1008.32 1009.31 1010.23 1011.13 1011.86 1012.63 1013.36 1013.90 1014.17 1014.36 1014.51 1014.69 1014.81 1014.92 1014.98 1014.91 1014.82 1014.66 1014.46 1014.18 1013.69 1013.46 1013.35 1013.28 1013.54 1013.90 1014.08 1013.93 1014.08 1014.33 1014.49 1014.74
1000.70 1001.31 1001.81 1002.33 1003.43 1004.43 1005.37 1006.25 1007.18 1007.99 1008.76 1009.57 1010.35 1011.21 1012.00 1012.69 1013.51 1014.10 1014.65 1015.02 1015.27 1015.57 1015.80 1016.03 1016.21 1016.14 1015.99 1015.99 1015.88 1015.62 1015.39 1014.97 1014.85 1014.82 1014.64 1014.73 1014.93 1015.49 1016.04 1016.10 1015.92 1015.77 1015.96
Wind_Speed
10 9 10 10 10 8 9 7 8 7 9 9 10 10 10 9 8 7 7 8 8 7 5 7 6 5 4 4 3 2 3 3 3 1 0 2 2 4 4 4 4 4 3
12 8 11 7 8 9 8 8 9 9 9 10 10 10 10 9 8 9 8 7 8 7 7 7 6 5 6 5 4 4 4 3 3 4 1 2 3 3 4 5 4 4 4
9 9 8 9 10 10 10 9 9 10 10 10 11 11 10 10 9 8 9 9 7 7 7 7 8 7 6 4 4 4 3 3 2 4 3 2 2 2 4 4 4 5 5
9 9 9 10 10 10 10 10 10 10 11 11 10 9 9 9 8 8 8 7 6 6 6 6 7 8 8 7 6 5 5 5 5 6 5 2 2 2 3 5 4 3 3
10 10 9 10 10 12 13 12 11 10 10 10 10 8 9 8 7 8 7 6 6 6 5 6 5 6 8 8 6 6 7 5 5 6 5 3 2 4 5 2 3 3 4
11 12 13 11 13 13 13 12 12 10 10 10 9 10 9 5 10 10 8 6 5 5 6 6 5 6 7 11 9 10 10 10 9 5 3 6 5 4 5 5 6 4 3
12 14 15 14 14 13 13 13 12 11 10 10 8 9 8 7 5 7 8 5 5 5 5 5 5 3 6 6 5 8 6 5 5 6 10 7 6 6 8 8 5 5 3
10 14 13 13 13 13 13 12 12 10 10 8 8 8 8 5 6 8 8 6 4 4 5 6 6 5 5 8 9 8 7 5 4 3 6 8 6 8 8 5 6 7 4
11 12 14 15 15 14 14 14 10 12 9 7 7 8 9 6 6 8 8 5 5 4 4 5 6 6 8 9 9 10 8 4 5 5 8 10 10 10 9 8 7 8 3
12 12 13 15 16 15 16 15 7 10 10 8 10 8 7 7 6 7 7 6 6 4 4 4 5 7 9 11 8 11 9 5 7 7 6 7 6 7 11 7 7 8 4
14 14 13 14 15 15 14 12 12 11 12 10 10 7 7 6 5 6 8 5 5 5 5 3 3 8 10 9 8 7 5 9 8 8 7 6 6 5 3 4 6 8 6
15 15 15 13 11 11 16 12 12 12 11 9 9 7 5 5 4 5 7 7 6 6 6 4 5 8 10 11 8 12 14 10 7 6 6 5 6 5 4 3 4 4 3
13 14 15 15 13 13 14 13 11 9 9 8 7 5 4 3 4 8 8 9 9 6 5 7 11 11 11 10 12 12 8 6 5 6 5 3 4 4 5 4 3 4 4
20 13 14 14 12 11 10 9 9 9 8 7 6 6 4 4 4 4 5 7 10 8 10 5 9 11 10 8 6 5 4 5 6 6 5 5 5 4 4 2 2 2 2
16 13 13 12 12 11 9 5 8 5 8 10 8 6 6 4 3 5 6 5 6 6 8 5 5 5 6 5 4 5 4 5 6 5 5 5 4 4 2 3 3 3 2
14 11 10 10 9 9 10 9 16 8 11 10 10 7 3 9 10 10 10 12 13 9 4 6 5 6 6 5 4 4 4 4 4 5 5 5 5 4 4 2 2 2 2
12 12 10 11 9 9 9 10 8 9 16 14 10 10 10 11 12 12 12 10 8 7 6 5 5 5 5 4 4 4 3 3 4 4 5 4 4 4 4 3 3 4 4
12 14 10 8 9 8 8 9 8 8 8 5 13 10 12 13 13 11 10 7 4 5 5 5 5 4 4 4 4 4 4 4 5 5 4 4 4 5 3 3 3 3 3
12 9 9 8 7 9 9 9 8 9 8 8 6 9 9 12 9 6 4 4 4 4 5 4 4 5 3 3 4 3 4 4 3 4 3 4 4 3 2 3 3 6 4
9 15 11 8 8 9 8 8 9 9 9 8 8 5 3 5 3 3 4 3 3 3 3 4 3 4 3 4 4 3 3 4 3 2 2 3 3 3 3 4 4 4 5
10 8 13 10 9 9 9 9 9 9 9 8 7 5 7 6 6 8 7 7 7 6 6 6 6 5 5 2 2 2 3 3 4 3 3 3 3 3 4 5 5 5 6
10 9 9 10 10 9 10 10 10 10 10 9 8 4 8 8 8 8 8 8 7 7 6 7 6 7 6 6 4 3 1 2 2 0 2 3 4 4 3 5 4 3 5
10 11 11 10 10 11 10 9 10 10 10 9 8 8 9 8 8 8 9 8 8 9 8 8 8 8 7 7 6 6 5 5 4 3 2 3 4 4 3 2 2 4 5
10 11 12 11 9 11 10 10 10 10 11 10 10 10 10 9 10 11 10 9 9 10 9 9 9 11 8 9 7 7 6 5 5 6 8 7 8 7 8 8 8 8 6
9 10 11 12 10 10 11 10 11 11 11 11 11 11 10 10 10 10 9 8 9 10 12 10 10 14 17 18 17 17 14 14 13 9 9 11 12 11 9 8 8 9 11
10 10 10 10 10 11 10 11 11 10 11 10 10 10 10 11 10 10 9 10 10 11 12 10 14 19 17 15 17 18 18 18 15 13 11 11 12 11 10 11 14 9 10
Wind_Direction
256 236 223 216 204 180 179 181 177 167 164 168 161 159 167 163 159 155 160 157 152 150 152 157 165 146 150 155 157 149 140 131 144 112 102 121 80 76 84 99 139 116 120
249 229 216 203 175 175 177 171 167 164 162 160 151 154 160 158 157 155 156 153 151 160 158 158 165 154 155 164 167 167 168 151 131 144 138 114 82 68 87 92 96 102 113
224 211 196 187 177 177 159 158 152 150 152 148 152 157 156 161 167 163 150 154 160 163 160 167 168 163 160 166 170 162 147 154 145 145 132 92 97 110 90 68 74 75 70
209 186 183 179 169 153 141 145 146 155 150 151 156 150 149 150 147 146 146 152 150 155 166 174 171 177 172 172 170 167 153 142 144 135 107 103 111 108 101 120 90 53 70
188 166 171 148 142 137 145 149 144 147 145 144 134 138 141 148 149 147 143 140 151 168 173 185 187 184 177 173 158 164 151 134 140 129 134 134 123 146 143 121 107 108 63
164 154 151 139 144 145 143 137 134 124 126 128 139 142 142 129 131 137 138 150 162 165 182 188 188 187 164 172 161 159 162 151 155 145 143 150 148 123 131 137 137 132 120
154 150 143 147 148 143 139 134 127 130 131 130 127 123 109 108 111 144 147 146 158 177 179 179 181 172 163 165 148 132 125 68 152 155 160 160 152 156 145 158 150 140 109
159 139 135 137 136 136 135 131 124 122 121 117 111 105 114 93 121 143 145 135 139 158 173 171 162 158 163 158 153 146 151 148 148 146 168 153 135 155 156 153 133 105 87
139 137 139 136 134 139 134 126 117 110 106 99 105 110 118 105 127 146 122 117 117 126 140 146 153 151 153 154 145 139 135 110 36 110 117 121 137 144 134 133 146 148 133
135 135 134 135 134 137 123 112 100 104 106 103 99 94 102 109 90 128 119 122 126 124 103 99 106 131 149 146 162 146 139 146 137 121 103 84 117 150 148 152 162 154 130
129 129 134 119 126 116 108 113 113 110 104 101 109 107 98 95 82 119 125 132 142 137 131 126 100 112 120 136 133 136 130 138 127 123 123 124 114 136 114 142 166 159 156
130 131 112 120 121 119 116 116 111 108 106 113 109 97 88 92 86 95 111 110 128 134 135 111 108 119 124 122 111 125 126 126 125 126 125 129 136 144 136 124 116 101 62
134 120 128 118 121 121 118 115 108 115 121 118 121 125 121 108 85 73 82 107 96 102 106 100 123 112 100 84 115 124 126 117 117 119 120 114 134 129 121 109 97 101 75
119 139 121 117 117 115 111 116 122 127 124 129 139 140 126 113 117 122 113 100 89 87 101 97 88 86 86 109 115 98 99 123 132 127 122 110 118 136 140 136 119 143 128
130 119 116 115 107 89 68 88 126 115 142 152 155 140 138 140 152 140 127 119 113 118 120 106 97 101 103 98 94 105 111 124 129 130 136 133 132 136 133 156 148 158 167
118 120 121 115 107 108 107 85 42 69 117 113 119 125 81 116 121 110 104 113 121 135 95 112 115 121 122 121 118 113 108 117 129 132 135 141 142 145 140 140 138 141 142
115 115 108 112 116 122 127 124 110 52 66 54 75 100 105 117 103 104 108 108 122 108 118 114 116 122 125 128 135 136 136 138 136 141 144 144 143 144 147 160 166 183 196
107 104 112 116 121 127 128 125 130 126 117 83 41 71 81 96 100 97 109 110 90 74 102 117 127 124 132 137 149 148 139 147 159 157 150 147 157 165 157 175 187 174 184
113 110 110 108 107 112 117 129 125 114 109 111 109 69 71 87 102 76 93 105 110 120 133 126 138 152 138 140 151 157 156 158 159 159 148 157 170 157 177 185 193 214 209
100 107 101 112 118 120 119 119 112 112 120 115 104 110 115 97 71 55 54 67 78 88 115 122 142 151 150 161 164 160 157 163 169 159 163 166 174 186 191 212 212 222 219
112 110 118 114 119 120 119 122 124 121 116 108 113 115 116 98 64 63 57 47 44 43 46 55 50 48 32 61 142 151 157 162 180 186 198 178 179 201 220 229 238 236 250
117 120 118 120 123 121 122 121 118 118 117 119 113 99 99 80 74 67 60 53 49 47 41 57 61 55 47 42 28 19 132 121 93 176 213 235 235 241 235 246 248 249 268
123 122 119 116 117 117 111 115 115 116 116 114 112 95 84 80 76 73 70 63 59 55 50 52 58 54 45 41 38 34 58 57 42 22 50 67 48 12 329 325 14 65 57
127 127 121 121 122 119 112 110 113 106 109 101 93 89 87 86 85 79 75 70 67 64 61 59 57 57 47 46 41 40 35 17 39 40 53 63 61 51 61 52 47 44 50
113 118 119 117 114 111 100 95 97 96 96 99 98 94 93 91 89 85 79 74 72 68 63 58 56 55 54 54 53 50 39 41 46 45 60 62 62 63 68 72 68 62 51
87 96 102 104 102 106 105 101 96 94 93 93 94 94 96 94 93 91 84 80 78 71 70 61 61 59 59 56 51 46 41 45 46 37 56 63 65 49 40 42 49 48 50